Time,TemperatureF,DewpointF,PressureIn,WindDirection,WindDirectionDegrees,WindSpeedMPH,WindSpeedGustMPH,Humidity,HourlyPrecipIn,Conditions,Clouds,dailyrainin,SoftwareType,DateUTC
2013-06-18 00:01:00,70.5,0.0,29.89,SE,136,4.6,4.6,0,0.00,CLR,,0.00,WeatherDisplay:10.37,2013-06-18 05:01:00,
2013-06-18 00:06:00,70.5,0.0,29.88,South,169,4.6,4.6,0,0.00,CLR,,0.00,WeatherDisplay:10.37,2013-06-18 05:06:00,
2013-06-18 00:11:00,70.3,0.0,29.88,SE,136,3.5,3.5,0,0.00,CLR,,0.00,WeatherDisplay:10.37,2013-06-18 05:11:00,
2013-06-18 00:16:00,70.2,0.0,29.88,ESE,117,4.8,4.8,0,0.00,CLR,,0.00,WeatherDisplay:10.37,2013-06-18 05:16:00,
2013-06-18 00:21:00,70.0,0.0,29.88,South,186,4.8,4.8,0,0.00,CLR,,0.00,WeatherDisplay:10.37,2013-06-18 05:21:00,
2013-06-18 00:26:00,70.0,0.0,29.88,SSE,150,0.0,0.0,0,0.00,CLR,,0.00,WeatherDisplay:10.37,2013-06-18 05:26:00,
2013-06-18 00:31:00,69.9,0.0,29.88,SSE,167,0.0,0.0,0,0.00,CLR,,0.00,WeatherDisplay:10.37,2013-06-18 05:31:00,
2013-06-18 00:36:00,69.6,0.0,29.88,South,179,9.6,9.6,0,0.00,CLR,,0.00,WeatherDisplay:10.37,2013-06-18 05:36:00,
2013-06-18 00:41:00,69.7,0.0,29.88,SE,127,4.6,4.6,0,0.00,CLR,,0.00,WeatherDisplay:10.37,2013-06-18 05:41:00,
2013-06-18 00:46:00,69.4,0.0,29.88,SSE,155,0.0,0.0,0,0.00,CLR,,0.00,WeatherDisplay:10.37,2013-06-18 05:46:00,
2013-06-18 00:51:00,69.4,0.0,29.88,SSE,158,0.0,0.0,0,0.00,CLR,,0.00,WeatherDisplay:10.37,2013-06-18 05:51:00,
2013-06-18 00:56:00,69.4,0.0,29.88,South,186,3.5,3.5,0,0.00,CLR,,0.00,WeatherDisplay:10.37,2013-06-18 05:56:00,
2013-06-18 01:01:00,69.4,0.0,29.88,SSW,195,0.0,0.0,0,0.00,CLR,,0.00,WeatherDisplay:10.37,2013-06-18 06:01:00,
2013-06-18 01:06:00,69.3,0.0,29.88,SSE,164,5.6,5.6,0,0.00,CLR,,0.00,WeatherDisplay:10.37,2013-06-18 06:06:00,
2013-06-18 01:11:00,69.2,0.0,29.88,South,189,6.9,6.9,0,0.00,CLR,,0.00,WeatherDisplay:10.37,2013-06-18 06:11:00,
2013-06-18 01:16:00,69.1,0.0,29.88,South,182,6.9,6.9,0,0.00,CLR,,0.00,WeatherDisplay:10.37,2013-06-18 06:16:00,
2013-06-18 01:21:00,69.1,0.0,29.88,SSW,196,3.5,0.0,0,0.00,CLR,,0.00,WeatherDisplay:10.37,2013-06-18 06:21:00,
2013-06-18 01:26:00,68.7,0.0,29.88,South,172,0.0,0.0,0,0.00,CLR,,0.00,WeatherDisplay:10.37,2013-06-18 06:26:00,
2013-06-18 01:31:00,68.6,0.0,29.88,SSE,168,4.6,4.6,0,0.00,CLR,,0.00,WeatherDisplay:10.37,2013-06-18 06:31:00,
2013-06-18 01:36:00,68.6,0.0,29.88,SSW,213,0.0,0.0,0,0.00,CLR,,0.00,WeatherDisplay:10.37,2013-06-18 06:36:00,
2013-06-18 01:41:00,68.5,0.0,29.89,SSW,208,3.5,3.5,0,0.00,CLR,,0.00,WeatherDisplay:10.37,2013-06-18 06:41:00,
2013-06-18 01:46:00,68.4,0.0,29.89,South,175,3.5,3.5,0,0.00,CLR,,0.00,WeatherDisplay:10.37,2013-06-18 06:46:00,
2013-06-18 01:51:00,68.4,0.0,29.89,South,175,0.0,0.0,0,0.00,CLR,,0.00,WeatherDisplay:10.37,2013-06-18 06:51:00,
2013-06-18 01:56:00,68.3,0.0,29.89,SSW,195,0.0,0.0,0,0.00,CLR,,0.00,WeatherDisplay:10.37,2013-06-18 06:56:00,
2013-06-18 02:01:00,68.4,0.0,29.88,SSW,203,4.6,0.0,0,0.00,CLR,,0.00,WeatherDisplay:10.37,2013-06-18 07:01:00,
2013-06-18 02:06:00,68.3,0.0,29.88,South,181,4.8,4.8,0,0.00,CLR,,0.00,WeatherDisplay:10.37,2013-06-18 07:06:00,
2013-06-18 02:11:00,68.0,0.0,29.88,South,178,0.0,0.0,0,0.00,CLR,,0.00,WeatherDisplay:10.37,2013-06-18 07:11:00,
2013-06-18 02:16:00,68.0,0.0,29.88,SSE,157,0.0,0.0,0,0.00,CLR,,0.00,WeatherDisplay:10.37,2013-06-18 07:16:00,
2013-06-18 02:21:00,67.9,0.0,29.87,South,172,0.0,0.0,0,0.00,CLR,,0.00,WeatherDisplay:10.37,2013-06-18 07:21:00,
2013-06-18 02:26:00,67.9,0.0,29.87,SSE,168,2.3,2.3,0,0.00,CLR,,0.00,WeatherDisplay:10.37,2013-06-18 07:26:00,
2013-06-18 02:31:00,67.7,0.0,29.87,WSW,256,0.0,0.0,0,0.00,CLR,,0.00,WeatherDisplay:10.37,2013-06-18 07:31:00,
2013-06-18 02:36:00,67.4,0.0,29.87,South,171,6.9,6.9,0,0.00,CLR,,0.00,WeatherDisplay:10.37,2013-06-18 07:36:00,
2013-06-18 02:41:00,67.2,0.0,29.88,SSE,160,5.8,5.8,0,0.00,CLR,,0.00,WeatherDisplay:10.37,2013-06-18 07:41:00,
2013-06-18 02:46:00,67.2,0.0,29.88,South,178,5.8,5.8,0,0.00,CLR,,0.00,WeatherDisplay:10.37,2013-06-18 07:46:00,
2013-06-18 02:51:00,67.0,0.0,29.88,South,176,2.3,0.0,0,0.00,CLR,,0.00,WeatherDisplay:10.37,2013-06-18 07:51:00,
2013-06-18 02:56:00,67.0,0.0,29.88,NNW,329,0.0,0.0,0,0.00,CLR,,0.00,WeatherDisplay:10.37,2013-06-18 07:56:00,
2013-06-18 03:01:00,67.0,0.0,29.88,WNW,282,1.2,1.2,0,0.00,CLR,,0.00,WeatherDisplay:10.37,2013-06-18 08:01:00,
2013-06-18 03:06:00,67.0,0.0,29.88,WNW,282,0.0,0.0,0,0.00,CLR,,0.00,WeatherDisplay:10.37,2013-06-18 08:06:00,
2013-06-18 03:11:00,66.7,0.0,29.87,SSE,158,5.8,5.8,0,0.00,CLR,,0.00,WeatherDisplay:10.37,2013-06-18 08:11:00,
2013-06-18 03:16:00,66.7,0.0,29.87,South,182,0.0,0.0,0,0.00,CLR,,0.00,WeatherDisplay:10.37,2013-06-18 08:16:00,
2013-06-18 03:21:00,66.7,0.0,29.87,South,182,0.0,0.0,0,0.00,CLR,,0.00,WeatherDisplay:10.37,2013-06-18 08:21:00,
2013-06-18 03:26:00,66.6,0.0,29.87,South,182,0.0,0.0,0,0.00,CLR,,0.00,WeatherDisplay:10.37,2013-06-18 08:26:00,
2013-06-18 03:31:00,66.4,0.0,29.87,South,182,0.0,0.0,0,0.00,CLR,,0.00,WeatherDisplay:10.37,2013-06-18 08:31:00,
2013-06-18 03:36:00,66.5,0.0,29.87,SW,227,0.0,0.0,0,0.00,CLR,,0.00,WeatherDisplay:10.37,2013-06-18 08:36:00,
2013-06-18 03:41:00,66.3,0.0,29.87,SW,227,0.0,0.0,0,0.00,CLR,,0.00,WeatherDisplay:10.37,2013-06-18 08:41:00,
2013-06-18 03:46:00,66.3,0.0,29.87,SW,227,0.0,0.0,0,0.00,CLR,,0.00,WeatherDisplay:10.37,2013-06-18 08:46:00,
2013-06-18 03:51:00,66.2,0.0,29.87,SW,227,0.0,0.0,0,0.00,CLR,,0.00,WeatherDisplay:10.37,2013-06-18 08:51:00,
2013-06-18 03:56:00,66.4,0.0,29.87,SW,227,0.0,0.0,0,0.00,CLR,,0.00,WeatherDisplay:10.37,2013-06-18 08:56:00,
2013-06-18 04:01:00,66.1,0.0,29.87,NNW,328,0.0,0.0,0,0.00,CLR,,0.00,WeatherDisplay:10.37,2013-06-18 09:01:00,
2013-06-18 04:06:00,66.2,0.0,29.88,SW,232,4.6,4.6,0,0.00,CLR,,0.00,WeatherDisplay:10.37,2013-06-18 09:06:00,
2013-06-18 04:11:00,66.0,0.0,29.88,SW,232,0.0,0.0,0,0.00,CLR,,0.00,WeatherDisplay:10.37,2013-06-18 09:11:00,
2013-06-18 04:16:00,66.1,0.0,29.87,SW,232,1.2,1.2,0,0.00,CLR,,0.00,WeatherDisplay:10.37,2013-06-18 09:16:00,
2013-06-18 04:21:00,65.9,0.0,29.87,WNW,287,3.5,3.5,0,0.00,CLR,,0.00,WeatherDisplay:10.37,2013-06-18 09:21:00,
2013-06-18 04:26:00,65.9,0.0,29.88,West,274,2.3,0.0,0,0.00,CLR,,0.00,WeatherDisplay:10.37,2013-06-18 09:26:00,
2013-06-18 04:31:00,66.0,0.0,29.88,West,274,0.0,0.0,0,0.00,CLR,,0.00,WeatherDisplay:10.37,2013-06-18 09:31:00,
2013-06-18 04:36:00,65.7,0.0,29.88,West,260,0.0,0.0,0,0.00,CLR,,0.00,WeatherDisplay:10.37,2013-06-18 09:36:00,
2013-06-18 04:41:00,65.9,0.0,29.88,West,260,0.0,0.0,0,0.00,CLR,,0.00,WeatherDisplay:10.37,2013-06-18 09:41:00,
2013-06-18 04:46:00,65.7,0.0,29.88,West,260,0.0,0.0,0,0.00,CLR,,0.00,WeatherDisplay:10.37,2013-06-18 09:46:00,
2013-06-18 04:51:00,65.5,0.0,29.88,West,260,0.0,0.0,0,0.00,CLR,,0.00,WeatherDisplay:10.37,2013-06-18 09:51:00,
2013-06-18 04:56:00,65.3,0.0,29.88,West,260,0.0,0.0,0,0.00,CLR,,0.00,WeatherDisplay:10.37,2013-06-18 09:56:00,
2013-06-18 05:01:00,65.5,0.0,29.89,NW,318,0.0,0.0,0,0.00,CLR,,0.00,WeatherDisplay:10.37,2013-06-18 10:01:00,
2013-06-18 05:06:00,65.2,0.0,29.89,NW,318,0.0,0.0,0,0.00,CLR,,0.00,WeatherDisplay:10.37,2013-06-18 10:06:00,
2013-06-18 05:11:00,65.2,0.0,29.89,NW,318,0.0,0.0,0,0.00,CLR,,0.00,WeatherDisplay:10.37,2013-06-18 10:11:00,
2013-06-18 05:16:00,65.2,0.0,29.89,NW,318,0.0,0.0,0,0.00,CLR,,0.00,WeatherDisplay:10.37,2013-06-18 10:16:00,
2013-06-18 05:21:00,65.2,0.0,29.89,NW,318,0.0,0.0,0,0.00,CLR,,0.00,WeatherDisplay:10.37,2013-06-18 10:21:00,
2013-06-18 05:26:00,65.1,0.0,29.89,NW,318,0.0,0.0,0,0.00,CLR,,0.00,WeatherDisplay:10.37,2013-06-18 10:26:00,
2013-06-18 05:31:00,65.0,0.0,29.89,NW,318,0.0,0.0,0,0.00,CLR,,0.00,WeatherDisplay:10.37,2013-06-18 10:31:00,
2013-06-18 05:36:00,65.1,0.0,29.89,NW,318,0.0,0.0,0,0.00,CLR,,0.00,WeatherDisplay:10.37,2013-06-18 10:36:00,
2013-06-18 05:41:00,64.9,0.0,29.89,NW,318,0.0,0.0,0,0.00,CLR,,0.00,WeatherDisplay:10.37,2013-06-18 10:41:00,
2013-06-18 05:46:00,65.0,0.0,29.89,NW,318,0.0,0.0,0,0.00,CLR,,0.00,WeatherDisplay:10.37,2013-06-18 10:46:00,
2013-06-18 05:51:00,64.8,0.0,29.89,NW,318,0.0,0.0,0,0.00,CLR,,0.00,WeatherDisplay:10.37,2013-06-18 10:51:00,
2013-06-18 05:56:00,65.0,0.0,29.89,NW,318,0.0,0.0,0,0.00,CLR,,0.00,WeatherDisplay:10.37,2013-06-18 10:56:00,
2013-06-18 06:01:00,65.0,0.0,29.90,North,360,0.0,0.0,0,0.00,CLR,,0.00,WeatherDisplay:10.37,2013-06-18 11:01:00,
2013-06-18 06:06:00,64.9,0.0,29.90,North,360,0.0,0.0,0,0.00,CLR,,0.00,WeatherDisplay:10.37,2013-06-18 11:06:00,
2013-06-18 06:11:00,64.9,0.0,29.90,North,360,0.0,0.0,0,0.00,CLR,,0.00,WeatherDisplay:10.37,2013-06-18 11:11:00,
2013-06-18 06:16:00,64.9,0.0,29.90,North,360,0.0,0.0,0,0.00,CLR,,0.00,WeatherDisplay:10.37,2013-06-18 11:16:00,
2013-06-18 06:21:00,65.1,0.0,29.91,North,360,0.0,0.0,0,0.00,CLR,,0.00,WeatherDisplay:10.37,2013-06-18 11:21:00,
2013-06-18 06:26:00,64.9,0.0,29.91,North,360,0.0,0.0,0,0.00,CLR,,0.00,WeatherDisplay:10.37,2013-06-18 11:26:00,
2013-06-18 06:31:00,65.0,0.0,29.90,North,360,0.0,0.0,0,0.00,CLR,,0.00,WeatherDisplay:10.37,2013-06-18 11:31:00,
2013-06-18 06:36:00,65.0,0.0,29.91,North,360,0.0,0.0,0,0.00,CLR,,0.00,WeatherDisplay:10.37,2013-06-18 11:36:00,
2013-06-18 06:41:00,65.1,0.0,29.91,North,360,0.0,0.0,0,0.00,CLR,,0.00,WeatherDisplay:10.37,2013-06-18 11:41:00,
2013-06-18 06:46:00,65.2,0.0,29.91,North,360,0.0,0.0,0,0.00,CLR,,0.00,WeatherDisplay:10.37,2013-06-18 11:46:00,
2013-06-18 06:51:00,65.2,0.0,29.91,North,360,0.0,0.0,0,0.00,CLR,,0.00,WeatherDisplay:10.37,2013-06-18 11:51:00,
2013-06-18 06:56:00,65.6,0.0,29.91,North,360,0.0,0.0,0,0.00,CLR,,0.00,WeatherDisplay:10.37,2013-06-18 11:56:00,
2013-06-18 07:01:00,65.6,0.0,29.91,North,360,0.0,0.0,0,0.00,CLR,,0.00,WeatherDisplay:10.37,2013-06-18 12:01:00,
2013-06-18 07:06:00,65.9,0.0,29.92,North,360,0.0,0.0,0,0.00,CLR,,0.00,WeatherDisplay:10.37,2013-06-18 12:06:00,
2013-06-18 07:11:00,66.1,0.0,29.92,North,360,0.0,0.0,0,0.00,CLR,,0.00,WeatherDisplay:10.37,2013-06-18 12:11:00,
2013-06-18 07:16:00,66.4,0.0,29.92,North,360,0.0,0.0,0,0.00,CLR,,0.00,WeatherDisplay:10.37,2013-06-18 12:16:00,
2013-06-18 07:21:00,66.7,0.0,29.92,North,360,0.0,0.0,0,0.00,CLR,,0.00,WeatherDisplay:10.37,2013-06-18 12:21:00,
2013-06-18 07:26:00,66.8,0.0,29.92,North,360,0.0,0.0,0,0.00,CLR,,0.00,WeatherDisplay:10.37,2013-06-18 12:26:00,
2013-06-18 07:31:00,66.9,0.0,29.92,North,360,0.0,0.0,0,0.00,CLR,,0.00,WeatherDisplay:10.37,2013-06-18 12:31:00,
2013-06-18 07:36:00,67.0,0.0,29.92,North,360,0.0,0.0,0,0.00,CLR,,0.00,WeatherDisplay:10.37,2013-06-18 12:36:00,
2013-06-18 07:41:00,67.2,0.0,29.92,North,360,0.0,0.0,0,0.00,CLR,,0.00,WeatherDisplay:10.37,2013-06-18 12:41:00,
2013-06-18 07:46:00,67.6,0.0,29.92,North,360,0.0,0.0,0,0.00,CLR,,0.00,WeatherDisplay:10.37,2013-06-18 12:46:00,
2013-06-18 07:51:00,68.0,0.0,29.92,North,360,0.0,0.0,0,0.00,CLR,,0.00,WeatherDisplay:10.37,2013-06-18 12:51:00,
2013-06-18 07:56:00,68.4,0.0,29.92,North,360,0.0,0.0,0,0.00,CLR,,0.00,WeatherDisplay:10.37,2013-06-18 12:56:00,
2013-06-18 08:01:00,68.8,0.0,29.92,North,360,0.0,0.0,0,0.00,CLR,,0.00,WeatherDisplay:10.37,2013-06-18 13:01:00,
2013-06-18 08:06:00,68.9,0.0,29.92,North,360,0.0,0.0,0,0.00,CLR,,0.00,WeatherDisplay:10.37,2013-06-18 13:06:00,
2013-06-18 08:11:00,69.2,0.0,29.92,North,360,0.0,0.0,0,0.00,CLR,,0.00,WeatherDisplay:10.37,2013-06-18 13:11:00,
2013-06-18 08:16:00,69.5,0.0,29.92,North,360,0.0,0.0,0,0.00,CLR,,0.00,WeatherDisplay:10.37,2013-06-18 13:16:00,
2013-06-18 08:21:00,69.4,0.0,29.92,NW,311,3.2,3.2,0,0.00,CLR,,0.00,WeatherDisplay:10.37,2013-06-18 13:21:00,
2013-06-18 08:26:00,69.9,0.0,29.92,NW,311,0.0,0.0,0,0.00,CLR,,0.00,WeatherDisplay:10.37,2013-06-18 13:26:00,
2013-06-18 08:31:00,70.5,0.0,29.92,NNW,346,6.9,6.9,0,0.00,CLR,,0.00,WeatherDisplay:10.37,2013-06-18 13:31:00,
2013-06-18 08:36:00,70.9,0.0,29.92,NNW,346,6.9,6.9,0,0.00,CLR,,0.00,WeatherDisplay:10.37,2013-06-18 13:36:00,
2013-06-18 08:41:00,70.7,0.0,29.92,NNW,347,0.0,0.0,0,0.00,CLR,,0.00,WeatherDisplay:10.37,2013-06-18 13:41:00,
2013-06-18 08:46:00,70.7,0.0,29.92,NNW,347,0.0,0.0,0,0.00,CLR,,0.00,WeatherDisplay:10.37,2013-06-18 13:46:00,
2013-06-18 08:51:00,70.6,0.0,29.91,NNW,347,0.0,0.0,0,0.00,CLR,,0.00,WeatherDisplay:10.37,2013-06-18 13:51:00,
2013-06-18 08:56:00,70.9,0.0,29.91,NNW,347,0.0,0.0,0,0.00,CLR,,0.00,WeatherDisplay:10.37,2013-06-18 13:56:00,
2013-06-18 09:01:00,71.0,0.0,29.91,NNW,347,0.0,0.0,0,0.00,CLR,,0.00,WeatherDisplay:10.37,2013-06-18 14:01:00,
2013-06-18 09:06:00,71.3,0.0,29.91,NNW,347,0.0,0.0,0,0.00,CLR,,0.00,WeatherDisplay:10.37,2013-06-18 14:06:00,
2013-06-18 09:11:00,71.8,0.0,29.92,North,360,0.0,0.5,0,0.00,CLR,,0.00,WeatherDisplay:10.37,2013-06-18 14:11:00,
2013-06-18 09:16:00,72.0,0.0,29.91,North,360,0.0,0.0,0,0.00,CLR,,0.00,WeatherDisplay:10.37,2013-06-18 14:16:00,
2013-06-18 09:21:00,72.6,0.0,29.91,North,360,0.0,0.0,0,0.00,CLR,,0.00,WeatherDisplay:10.37,2013-06-18 14:21:00,
2013-06-18 09:26:00,72.9,0.0,29.91,NW,320,6.9,6.9,0,0.00,CLR,,0.00,WeatherDisplay:10.37,2013-06-18 14:26:00,
2013-06-18 09:31:00,73.4,0.0,29.91,NNW,330,4.9,4.9,0,0.00,CLR,,0.00,WeatherDisplay:10.37,2013-06-18 14:31:00,
2013-06-18 09:36:00,73.7,0.0,29.91,North,353,0.0,0.0,0,0.00,CLR,,0.00,WeatherDisplay:10.37,2013-06-18 14:36:00,
2013-06-18 09:41:00,73.9,0.0,29.91,North,352,3.5,0.0,0,0.00,CLR,,0.00,WeatherDisplay:10.37,2013-06-18 14:41:00,
2013-06-18 09:46:00,74.3,0.0,29.91,NW,318,2.3,0.0,0,0.00,CLR,,0.00,WeatherDisplay:10.37,2013-06-18 14:46:00,
2013-06-18 09:51:00,74.7,0.0,29.92,NW,311,4.6,4.6,0,0.00,CLR,,0.00,WeatherDisplay:10.37,2013-06-18 14:51:00,
2013-06-18 09:56:00,74.9,0.0,29.91,NW,313,4.5,4.5,0,0.00,CLR,,0.00,WeatherDisplay:10.37,2013-06-18 14:56:00,
2013-06-18 10:01:00,75.3,0.0,29.92,NW,308,3.5,0.0,0,0.00,CLR,,0.00,WeatherDisplay:10.37,2013-06-18 15:01:00,
2013-06-18 10:06:00,75.7,0.0,29.91,North,0,6.9,6.9,0,0.00,CLR,,0.00,WeatherDisplay:10.37,2013-06-18 15:06:00,
2013-06-18 10:11:00,76.0,0.0,29.91,WNW,285,0.0,1.5,0,0.00,CLR,,0.00,WeatherDisplay:10.37,2013-06-18 15:11:00,
2013-06-18 10:16:00,76.5,0.0,29.91,NW,322,5.8,5.8,0,0.00,CLR,,0.00,WeatherDisplay:10.37,2013-06-18 15:16:00,
2013-06-18 10:21:00,77.1,0.0,29.91,WNW,284,0.0,0.0,0,0.00,CLR,,0.00,WeatherDisplay:10.37,2013-06-18 15:21:00,
2013-06-18 10:26:00,79.0,0.0,29.91,North,360,0.0,1.8,0,0.00,CLR,,0.00,WeatherDisplay:10.37,2013-06-18 15:26:00,
2013-06-18 10:31:00,81.1,0.0,29.91,NW,315,4.6,0.0,0,0.00,CLR,,0.00,WeatherDisplay:10.37,2013-06-18 15:31:00,
2013-06-18 10:36:00,83.0,0.0,29.91,NNW,328,6.8,6.8,0,0.00,CLR,,0.00,WeatherDisplay:10.37,2013-06-18 15:36:00,
2013-06-18 10:41:00,82.6,0.0,29.91,NNE,14,6.9,6.9,0,0.00,CLR,,0.00,WeatherDisplay:10.37,2013-06-18 15:41:00,
2013-06-18 10:46:00,83.7,0.0,29.91,NNW,346,2.3,2.3,0,0.00,CLR,,0.00,WeatherDisplay:10.37,2013-06-18 15:46:00,
2013-06-18 10:51:00,84.4,0.0,29.91,NNE,13,5.2,5.2,0,0.00,CLR,,0.00,WeatherDisplay:10.37,2013-06-18 15:51:00,
2013-06-18 10:56:00,85.4,0.0,29.92,NW,326,0.0,0.0,0,0.00,CLR,,0.00,WeatherDisplay:10.37,2013-06-18 15:56:00,
2013-06-18 11:01:00,84.9,0.0,29.92,NW,325,4.6,4.6,0,0.00,CLR,,0.00,WeatherDisplay:10.37,2013-06-18 16:01:00,
2013-06-18 11:06:00,85.7,0.0,29.92,NNW,346,9.0,9.0,0,0.00,CLR,,0.00,WeatherDisplay:10.37,2013-06-18 16:06:00,
2013-06-18 11:11:00,85.7,0.0,29.92,NNW,336,5.8,5.8,0,0.00,CLR,,0.00,WeatherDisplay:10.37,2013-06-18 16:11:00,
2013-06-18 11:16:00,87.0,0.0,29.92,West,267,0.0,0.4,0,0.00,CLR,,0.00,WeatherDisplay:10.37,2013-06-18 16:16:00,
2013-06-18 11:21:00,86.5,0.0,29.92,WNW,282,3.5,0.0,0,0.00,CLR,,0.00,WeatherDisplay:10.37,2013-06-18 16:21:00,
2013-06-18 11:26:00,86.5,0.0,29.92,North,360,0.0,0.0,0,0.00,CLR,,0.00,WeatherDisplay:10.37,2013-06-18 16:26:00,
2013-06-18 11:31:00,85.9,0.0,29.92,NW,312,0.0,0.0,0,0.00,CLR,,0.00,WeatherDisplay:10.37,2013-06-18 16:31:00,
2013-06-18 11:36:00,86.7,0.0,29.92,NW,312,0.0,0.0,0,0.00,CLR,,0.00,WeatherDisplay:10.37,2013-06-18 16:36:00,
2013-06-18 11:41:00,86.1,0.0,29.92,North,1,6.9,6.9,0,0.00,CLR,,0.00,WeatherDisplay:10.37,2013-06-18 16:41:00,
2013-06-18 11:46:00,84.2,0.0,29.92,NW,322,5.0,5.1,0,0.00,CLR,,0.00,WeatherDisplay:10.37,2013-06-18 16:46:00,
2013-06-18 11:51:00,86.2,0.0,29.92,North,360,4.2,4.2,0,0.00,CLR,,0.00,WeatherDisplay:10.37,2013-06-18 16:51:00,
2013-06-18 11:56:00,86.0,0.0,29.93,North,7,9.2,9.2,0,0.00,CLR,,0.00,WeatherDisplay:10.37,2013-06-18 16:56:00,
2013-06-18 12:01:00,83.7,0.0,29.92,North,7,0.0,0.0,0,0.00,CLR,,0.00,WeatherDisplay:10.37,2013-06-18 17:01:00,
2013-06-18 12:06:00,85.7,0.0,29.92,North,360,8.1,8.1,0,0.00,CLR,,0.00,WeatherDisplay:10.37,2013-06-18 17:06:00,
2013-06-18 12:11:00,86.5,0.0,29.92,West,270,8.1,0.0,0,0.00,CLR,,0.00,WeatherDisplay:10.37,2013-06-18 17:11:00,
2013-06-18 12:16:00,86.9,0.0,29.92,ENE,69,0.0,0.0,0,0.00,CLR,,0.00,WeatherDisplay:10.37,2013-06-18 17:16:00,
2013-06-18 12:21:00,85.5,0.0,29.92,NNW,332,4.6,4.6,0,0.00,CLR,,0.00,WeatherDisplay:10.37,2013-06-18 17:21:00,
2013-06-18 12:26:00,86.1,0.0,29.92,NNW,332,0.0,0.0,0,0.00,CLR,,0.00,WeatherDisplay:10.37,2013-06-18 17:26:00,
2013-06-18 12:31:00,86.8,0.0,29.92,North,8,7.0,7.0,0,0.00,CLR,,0.00,WeatherDisplay:10.37,2013-06-18 17:31:00,
2013-06-18 12:36:00,86.6,0.0,29.91,North,357,4.6,0.0,0,0.00,CLR,,0.00,WeatherDisplay:10.37,2013-06-18 17:36:00,
2013-06-18 12:41:00,85.6,0.0,29.91,NW,320,0.0,0.0,0,0.00,CLR,,0.00,WeatherDisplay:10.37,2013-06-18 17:41:00,
2013-06-18 12:46:00,85.3,0.0,29.91,NW,320,9.2,9.2,0,0.00,CLR,,0.00,WeatherDisplay:10.37,2013-06-18 17:46:00,
2013-06-18 12:51:00,85.3,0.0,29.91,NNW,328,0.0,0.0,0,0.00,CLR,,0.00,WeatherDisplay:10.37,2013-06-18 17:51:00,
2013-06-18 12:56:00,85.3,0.0,29.91,West,277,0.0,0.0,0,0.00,CLR,,0.00,WeatherDisplay:10.37,2013-06-18 17:56:00,
2013-06-18 13:01:00,85.0,0.0,29.91,NNE,28,0.0,0.0,0,0.00,CLR,,0.00,WeatherDisplay:10.37,2013-06-18 18:01:00,
2013-06-18 13:06:00,85.6,0.0,29.91,NW,320,0.0,1.7,0,0.00,CLR,,0.00,WeatherDisplay:10.37,2013-06-18 18:06:00,
2013-06-18 13:11:00,86.3,0.0,29.91,NW,313,5.8,0.0,0,0.00,CLR,,0.00,WeatherDisplay:10.37,2013-06-18 18:11:00,
2013-06-18 13:16:00,85.5,0.0,29.91,SW,227,0.0,0.0,0,0.00,CLR,,0.00,WeatherDisplay:10.37,2013-06-18 18:16:00,
2013-06-18 13:21:00,85.9,0.0,29.91,NNW,328,9.2,9.2,0,0.00,CLR,,0.00,WeatherDisplay:10.37,2013-06-18 18:21:00,
2013-06-18 13:26:00,86.2,0.0,29.91,East,79,0.0,1.4,0,0.00,CLR,,0.00,WeatherDisplay:10.37,2013-06-18 18:26:00,
2013-06-18 13:31:00,86.1,0.0,29.91,North,360,0.0,2.4,0,0.00,CLR,,0.00,WeatherDisplay:10.37,2013-06-18 18:31:00,
2013-06-18 13:36:00,86.2,0.0,29.91,NNW,328,5.8,5.8,0,0.00,CLR,,0.00,WeatherDisplay:10.37,2013-06-18 18:36:00,
2013-06-18 13:41:00,86.6,0.0,29.91,NNE,24,0.0,0.0,0,0.00,CLR,,0.00,WeatherDisplay:10.37,2013-06-18 18:41:00,
2013-06-18 13:46:00,86.6,0.0,29.91,North,1,8.1,8.1,0,0.00,CLR,,0.00,WeatherDisplay:10.37,2013-06-18 18:46:00,
2013-06-18 13:51:00,86.3,0.0,29.91,North,360,0.0,0.0,0,0.00,CLR,,0.00,WeatherDisplay:10.37,2013-06-18 18:51:00,
2013-06-18 13:56:00,86.1,0.0,29.91,NNW,337,9.2,9.2,0,0.00,CLR,,0.00,WeatherDisplay:10.37,2013-06-18 18:56:00,
2013-06-18 14:01:00,87.0,0.0,29.91,NNW,337,0.0,0.0,0,0.00,CLR,,0.00,WeatherDisplay:10.37,2013-06-18 19:01:00,
2013-06-18 14:06:00,86.5,0.0,29.91,NW,316,0.0,0.0,0,0.00,CLR,,0.00,WeatherDisplay:10.37,2013-06-18 19:06:00,
2013-06-18 14:11:00,86.8,0.0,29.91,NW,316,0.0,0.0,0,0.00,CLR,,0.00,WeatherDisplay:10.37,2013-06-18 19:11:00,
2013-06-18 14:16:00,86.8,0.0,29.91,North,3,3.5,0.0,0,0.00,CLR,,0.00,WeatherDisplay:10.37,2013-06-18 19:16:00,
2013-06-18 14:21:00,86.8,0.0,29.91,NNW,342,6.6,6.6,0,0.00,CLR,,0.00,WeatherDisplay:10.37,2013-06-18 19:21:00,
2013-06-18 14:26:00,87.4,0.0,29.91,NW,325,0.0,0.4,0,0.00,CLR,,0.00,WeatherDisplay:10.37,2013-06-18 19:26:00,
2013-06-18 14:31:00,87.1,0.0,29.91,NW,315,2.3,2.3,0,0.00,CLR,,0.00,WeatherDisplay:10.37,2013-06-18 19:31:00,
2013-06-18 14:36:00,86.6,0.0,29.91,NW,323,8.1,8.1,0,0.00,CLR,,0.00,WeatherDisplay:10.37,2013-06-18 19:36:00,
2013-06-18 14:41:00,86.8,0.0,29.91,WNW,282,0.0,1.2,0,0.00,CLR,,0.00,WeatherDisplay:10.37,2013-06-18 19:41:00,
2013-06-18 14:46:00,87.1,0.0,29.91,WNW,299,3.5,3.5,0,0.00,CLR,,0.00,WeatherDisplay:10.37,2013-06-18 19:46:00,
2013-06-18 14:51:00,86.8,0.0,29.90,West,260,1.8,1.8,0,0.00,CLR,,0.00,WeatherDisplay:10.37,2013-06-18 19:51:00,
2013-06-18 14:56:00,86.4,0.0,29.90,NNW,329,0.0,0.0,0,0.00,CLR,,0.00,WeatherDisplay:10.37,2013-06-18 19:56:00,
2013-06-18 15:01:00,86.8,0.0,29.90,NW,305,3.5,3.5,0,0.00,CLR,,0.00,WeatherDisplay:10.37,2013-06-18 20:01:00,
2013-06-18 15:06:00,87.0,0.0,29.90,North,360,0.0,0.0,0,0.00,CLR,,0.00,WeatherDisplay:10.37,2013-06-18 20:06:00,
2013-06-18 15:11:00,86.9,0.0,29.89,North,360,0.0,0.0,0,0.00,CLR,,0.00,WeatherDisplay:10.37,2013-06-18 20:11:00,
2013-06-18 15:16:00,87.0,0.0,29.89,North,360,0.0,0.0,0,0.00,CLR,,0.00,WeatherDisplay:10.37,2013-06-18 20:16:00,
2013-06-18 15:21:00,86.6,0.0,29.89,NNW,346,6.9,6.9,0,0.00,CLR,,0.00,WeatherDisplay:10.37,2013-06-18 20:21:00,
2013-06-18 15:26:00,86.8,0.0,29.89,NW,309,3.5,0.0,0,0.00,CLR,,0.00,WeatherDisplay:10.37,2013-06-18 20:26:00,
2013-06-18 15:31:00,86.9,0.0,29.90,WSW,253,9.2,9.2,0,0.00,CLR,,0.00,WeatherDisplay:10.37,2013-06-18 20:31:00,
2013-06-18 15:36:00,87.0,0.0,29.89,NNW,332,0.0,0.0,0,0.00,CLR,,0.00,WeatherDisplay:10.37,2013-06-18 20:36:00,
2013-06-18 15:41:00,87.0,0.0,29.89,NW,322,0.0,0.0,0,0.00,CLR,,0.00,WeatherDisplay:10.37,2013-06-18 20:41:00,
2013-06-18 15:46:00,87.0,0.0,29.89,NNW,333,8.5,8.5,0,0.00,CLR,,0.00,WeatherDisplay:10.37,2013-06-18 20:46:00,
2013-06-18 15:51:00,87.0,0.0,29.89,North,6,2.3,2.3,0,0.00,CLR,,0.00,WeatherDisplay:10.37,2013-06-18 20:51:00,
2013-06-18 15:56:00,86.5,0.0,29.89,SW,236,3.5,0.0,0,0.00,CLR,,0.00,WeatherDisplay:10.37,2013-06-18 20:56:00,
2013-06-18 16:01:00,86.4,0.0,29.89,SW,236,0.0,0.0,0,0.00,CLR,,0.00,WeatherDisplay:10.37,2013-06-18 21:01:00,
2013-06-18 16:06:00,85.9,0.0,29.90,WNW,298,0.0,0.0,0,0.00,CLR,,0.00,WeatherDisplay:10.37,2013-06-18 21:06:00,
2013-06-18 16:11:00,85.9,0.0,29.89,WNW,298,0.0,0.0,0,0.00,CLR,,0.00,WeatherDisplay:10.37,2013-06-18 21:11:00,
2013-06-18 16:16:00,86.3,0.0,29.88,WNW,298,0.0,0.0,0,0.00,CLR,,0.00,WeatherDisplay:10.37,2013-06-18 21:16:00,
2013-06-18 16:21:00,86.0,0.0,29.89,WNW,288,0.0,0.0,0,0.00,CLR,,0.00,WeatherDisplay:10.37,2013-06-18 21:21:00,
2013-06-18 16:26:00,86.0,0.0,29.89,NW,323,2.3,2.3,0,0.00,CLR,,0.00,WeatherDisplay:10.37,2013-06-18 21:26:00,
2013-06-18 16:31:00,85.9,0.0,29.89,SW,229,2.3,2.3,0,0.00,CLR,,0.00,WeatherDisplay:10.37,2013-06-18 21:31:00,
2013-06-18 16:36:00,85.3,0.0,29.90,SW,229,0.0,0.0,0,0.00,CLR,,0.00,WeatherDisplay:10.37,2013-06-18 21:36:00,
2013-06-18 16:41:00,83.8,0.0,29.89,NNW,333,5.8,5.8,0,0.00,CLR,,0.00,WeatherDisplay:10.37,2013-06-18 21:41:00,
2013-06-18 16:46:00,83.3,0.0,29.89,West,272,3.5,3.5,0,0.00,CLR,,0.00,WeatherDisplay:10.37,2013-06-18 21:46:00,
2013-06-18 16:51:00,83.5,0.0,29.89,West,272,0.0,0.0,0,0.00,CLR,,0.00,WeatherDisplay:10.37,2013-06-18 21:51:00,
2013-06-18 16:56:00,83.7,0.0,29.89,WSW,240,0.0,0.0,0,0.00,CLR,,0.00,WeatherDisplay:10.37,2013-06-18 21:56:00,
2013-06-18 17:01:00,83.3,0.0,29.89,NNW,343,3.5,0.0,0,0.00,CLR,,0.00,WeatherDisplay:10.37,2013-06-18 22:01:00,
2013-06-18 17:06:00,82.1,0.0,29.89,NNW,343,0.0,0.0,0,0.00,CLR,,0.00,WeatherDisplay:10.37,2013-06-18 22:06:00,
2013-06-18 17:11:00,81.9,0.0,29.89,NW,315,5.8,5.8,0,0.00,CLR,,0.00,WeatherDisplay:10.37,2013-06-18 22:11:00,
2013-06-18 17:16:00,81.5,0.0,29.89,North,6,0.0,0.0,0,0.00,CLR,,0.00,WeatherDisplay:10.37,2013-06-18 22:16:00,
2013-06-18 17:21:00,82.0,0.0,29.89,South,186,3.5,3.5,0,0.00,CLR,,0.00,WeatherDisplay:10.37,2013-06-18 22:21:00,
2013-06-18 17:26:00,81.8,0.0,29.89,North,350,8.1,8.1,0,0.00,CLR,,0.00,WeatherDisplay:10.37,2013-06-18 22:26:00,
2013-06-18 17:31:00,82.3,0.0,29.89,North,349,4.6,4.6,0,0.00,CLR,,0.00,WeatherDisplay:10.37,2013-06-18 22:31:00,
2013-06-18 17:36:00,82.8,0.0,29.89,NNW,333,6.9,6.9,0,0.00,CLR,,0.00,WeatherDisplay:10.37,2013-06-18 22:36:00,
2013-06-18 17:41:00,81.8,0.0,29.89,North,360,0.0,0.5,0,0.00,CLR,,0.00,WeatherDisplay:10.37,2013-06-18 22:41:00,
2013-06-18 17:46:00,81.3,0.0,29.89,North,360,0.0,0.0,0,0.00,CLR,,0.00,WeatherDisplay:10.37,2013-06-18 22:46:00,
2013-06-18 17:51:00,80.7,0.0,29.89,North,0,0.0,0.0,0,0.00,CLR,,0.00,WeatherDisplay:10.37,2013-06-18 22:51:00,
2013-06-18 17:56:00,81.9,0.0,29.90,West,281,0.0,0.0,0,0.00,CLR,,0.00,WeatherDisplay:10.37,2013-06-18 22:56:00,
2013-06-18 18:01:00,82.4,0.0,29.89,West,268,4.6,4.6,0,0.00,CLR,,0.00,WeatherDisplay:10.37,2013-06-18 23:01:00,
2013-06-18 18:06:00,82.3,0.0,29.90,NW,315,2.3,2.3,0,0.00,CLR,,0.00,WeatherDisplay:10.37,2013-06-18 23:06:00,
2013-06-18 18:11:00,82.5,0.0,29.90,NW,306,3.5,3.5,0,0.00,CLR,,0.00,WeatherDisplay:10.37,2013-06-18 23:11:00,
2013-06-18 18:16:00,81.9,0.0,29.90,East,86,0.0,0.0,0,0.00,CLR,,0.00,WeatherDisplay:10.37,2013-06-18 23:16:00,
2013-06-18 18:21:00,81.4,0.0,29.90,NNW,347,6.9,6.9,0,0.00,CLR,,0.00,WeatherDisplay:10.37,2013-06-18 23:21:00,
2013-06-18 18:26:00,81.2,0.0,29.90,WNW,301,7.7,7.7,0,0.00,CLR,,0.00,WeatherDisplay:10.37,2013-06-18 23:26:00,
2013-06-18 18:31:00,80.6,0.0,29.90,NNW,329,4.6,4.6,0,0.00,CLR,,0.00,WeatherDisplay:10.37,2013-06-18 23:31:00,
2013-06-18 18:36:00,80.7,0.0,29.91,NNW,340,5.8,5.8,0,0.00,CLR,,0.00,WeatherDisplay:10.37,2013-06-18 23:36:00,
2013-06-18 18:41:00,80.5,0.0,29.91,NW,326,5.7,5.7,0,0.00,CLR,,0.00,WeatherDisplay:10.37,2013-06-18 23:41:00,
2013-06-18 18:46:00,79.8,0.0,29.91,WNW,302,11.5,11.5,0,0.00,CLR,,0.00,WeatherDisplay:10.37,2013-06-18 23:46:00,
2013-06-18 18:51:00,79.2,0.0,29.91,NNE,16,5.8,5.8,0,0.00,CLR,,0.00,WeatherDisplay:10.37,2013-06-18 23:51:00,
2013-06-18 18:56:00,79.2,0.0,29.91,North,360,5.8,0.0,0,0.00,CLR,,0.00,WeatherDisplay:10.37,2013-06-18 23:56:00,
2013-06-18 19:01:00,79.0,0.0,29.91,NW,316,0.0,2.1,0,0.00,CLR,,0.00,WeatherDisplay:10.37,2013-06-19 00:01:00,
2013-06-18 19:06:00,78.8,0.0,29.91,NNW,329,0.0,0.0,0,0.00,CLR,,0.00,WeatherDisplay:10.37,2013-06-19 00:06:00,
2013-06-18 19:11:00,78.5,0.0,29.91,North,3,0.0,0.0,0,0.00,CLR,,0.00,WeatherDisplay:10.37,2013-06-19 00:11:00,
2013-06-18 19:16:00,78.2,0.0,29.91,West,275,4.6,4.6,0,0.00,CLR,,0.00,WeatherDisplay:10.37,2013-06-19 00:16:00,
2013-06-18 19:21:00,77.7,0.0,29.92,NNW,337,9.6,9.6,0,0.00,CLR,,0.00,WeatherDisplay:10.37,2013-06-19 00:21:00,
2013-06-18 19:26:00,76.9,0.0,29.92,NW,323,8.1,0.0,0,0.00,CLR,,0.00,WeatherDisplay:10.37,2013-06-19 00:26:00,
2013-06-18 19:31:00,76.4,0.0,29.93,North,360,9.2,9.2,0,0.00,CLR,,0.00,WeatherDisplay:10.37,2013-06-19 00:31:00,
2013-06-18 19:36:00,75.9,0.0,29.93,North,354,10.4,10.4,0,0.00,CLR,,0.00,WeatherDisplay:10.37,2013-06-19 00:36:00,
2013-06-18 19:41:00,75.6,0.0,29.93,NW,309,10.4,10.4,0,0.00,CLR,,0.00,WeatherDisplay:10.37,2013-06-19 00:41:00,
2013-06-18 19:46:00,75.2,0.0,29.93,NW,318,4.2,4.2,0,0.00,CLR,,0.00,WeatherDisplay:10.37,2013-06-19 00:46:00,
2013-06-18 19:51:00,75.0,0.0,29.93,NW,306,3.4,3.4,0,0.00,CLR,,0.00,WeatherDisplay:10.37,2013-06-19 00:51:00,
2013-06-18 19:56:00,74.8,0.0,29.93,NNE,20,0.0,3.9,0,0.00,CLR,,0.00,WeatherDisplay:10.37,2013-06-19 00:56:00,
2013-06-18 20:01:00,74.4,0.0,29.93,NW,318,8.1,8.1,0,0.00,CLR,,0.00,WeatherDisplay:10.37,2013-06-19 01:01:00,
2013-06-18 20:06:00,74.2,0.0,29.93,NW,313,1.2,1.4,0,0.00,CLR,,0.00,WeatherDisplay:10.37,2013-06-19 01:06:00,
2013-06-18 20:11:00,74.0,0.0,29.93,NNW,329,6.9,6.9,0,0.00,CLR,,0.00,WeatherDisplay:10.37,2013-06-19 01:11:00,
2013-06-18 20:16:00,73.7,0.0,29.93,NW,319,0.0,0.0,0,0.00,CLR,,0.00,WeatherDisplay:10.37,2013-06-19 01:16:00,
2013-06-18 20:21:00,73.4,0.0,29.93,NW,313,0.0,0.0,0,0.00,CLR,,0.00,WeatherDisplay:10.37,2013-06-19 01:21:00,
2013-06-18 20:26:00,73.1,0.0,29.94,NW,320,4.6,4.6,0,0.00,CLR,,0.00,WeatherDisplay:10.37,2013-06-19 01:26:00,
2013-06-18 20:31:00,72.9,0.0,29.94,NNW,333,4.6,0.0,0,0.00,CLR,,0.00,WeatherDisplay:10.37,2013-06-19 01:31:00,
2013-06-18 20:36:00,72.6,0.0,29.94,North,0,6.9,6.9,0,0.00,CLR,,0.00,WeatherDisplay:10.37,2013-06-19 01:36:00,
2013-06-18 20:41:00,72.3,0.0,29.95,North,360,0.0,0.0,0,0.00,CLR,,0.00,WeatherDisplay:10.37,2013-06-19 01:41:00,
2013-06-18 20:46:00,72.1,0.0,29.95,NW,316,3.5,3.5,0,0.00,CLR,,0.00,WeatherDisplay:10.37,2013-06-19 01:46:00,
2013-06-18 20:51:00,71.9,0.0,29.95,NNW,336,0.0,0.0,0,0.00,CLR,,0.00,WeatherDisplay:10.37,2013-06-19 01:51:00,
2013-06-18 20:56:00,71.6,0.0,29.95,NNW,336,0.0,0.0,0,0.00,CLR,,0.00,WeatherDisplay:10.37,2013-06-19 01:56:00,
2013-06-18 21:01:00,71.5,0.0,29.96,NNW,330,6.9,6.9,0,0.00,CLR,,0.00,WeatherDisplay:10.37,2013-06-19 02:01:00,
2013-06-18 21:06:00,71.3,0.0,29.96,NNW,329,3.4,3.5,0,0.00,CLR,,0.00,WeatherDisplay:10.37,2013-06-19 02:06:00,
2013-06-18 21:11:00,71.2,0.0,29.96,North,360,4.6,4.6,0,0.00,CLR,,0.00,WeatherDisplay:10.37,2013-06-19 02:11:00,
2013-06-18 21:16:00,70.8,0.0,29.96,NW,325,4.6,0.0,0,0.00,CLR,,0.00,WeatherDisplay:10.37,2013-06-19 02:16:00,
2013-06-18 21:21:00,70.6,0.0,29.96,WNW,302,8.0,8.0,0,0.00,CLR,,0.00,WeatherDisplay:10.37,2013-06-19 02:21:00,
2013-06-18 21:26:00,70.3,0.0,29.97,North,3,6.9,6.9,0,0.00,CLR,,0.00,WeatherDisplay:10.37,2013-06-19 02:26:00,
2013-06-18 21:31:00,70.0,0.0,29.97,NW,312,3.5,3.5,0,0.00,CLR,,0.00,WeatherDisplay:10.37,2013-06-19 02:31:00,
2013-06-18 21:36:00,70.0,0.0,29.97,NNW,343,0.0,0.0,0,0.00,CLR,,0.00,WeatherDisplay:10.37,2013-06-19 02:36:00,
2013-06-18 21:41:00,69.9,0.0,29.98,NW,315,5.8,5.8,0,0.00,CLR,,0.00,WeatherDisplay:10.37,2013-06-19 02:41:00,
2013-06-18 21:46:00,69.5,0.0,29.98,North,1,4.6,0.0,0,0.00,CLR,,0.00,WeatherDisplay:10.37,2013-06-19 02:46:00,
2013-06-18 21:51:00,69.4,0.0,29.98,NW,325,5.8,0.0,0,0.00,CLR,,0.00,WeatherDisplay:10.37,2013-06-19 02:51:00,
2013-06-18 21:56:00,69.2,0.0,29.99,NW,319,4.6,0.0,0,0.00,CLR,,0.00,WeatherDisplay:10.37,2013-06-19 02:56:00,
2013-06-18 22:01:00,68.9,0.0,29.99,NW,316,2.9,2.9,0,0.00,CLR,,0.00,WeatherDisplay:10.37,2013-06-19 03:01:00,
2013-06-18 22:06:00,68.8,0.0,29.99,NNW,342,6.9,6.9,0,0.00,CLR,,0.00,WeatherDisplay:10.37,2013-06-19 03:06:00,
2013-06-18 22:11:00,68.8,0.0,29.99,West,281,3.3,3.3,0,0.00,CLR,,0.00,WeatherDisplay:10.37,2013-06-19 03:11:00,
2013-06-18 22:16:00,68.3,0.0,29.99,North,360,4.6,4.6,0,0.00,CLR,,0.00,WeatherDisplay:10.37,2013-06-19 03:16:00,
2013-06-18 22:21:00,68.0,0.0,29.99,North,360,0.0,0.0,0,0.00,CLR,,0.00,WeatherDisplay:10.37,2013-06-19 03:21:00,
2013-06-18 22:26:00,67.7,0.0,29.99,North,360,0.0,0.0,0,0.00,CLR,,0.00,WeatherDisplay:10.37,2013-06-19 03:26:00,
2013-06-18 22:31:00,67.2,0.0,29.99,North,360,0.0,2.4,0,0.00,CLR,,0.00,WeatherDisplay:10.37,2013-06-19 03:31:00,
2013-06-18 22:36:00,67.0,0.0,29.99,NE,38,5.8,5.8,0,0.00,CLR,,0.00,WeatherDisplay:10.37,2013-06-19 03:36:00,
2013-06-18 22:41:00,67.1,0.0,29.99,NNW,340,0.0,0.0,0,0.00,CLR,,0.00,WeatherDisplay:10.37,2013-06-19 03:41:00,
2013-06-18 22:46:00,66.9,0.0,29.99,NNW,340,0.0,0.0,0,0.00,CLR,,0.00,WeatherDisplay:10.37,2013-06-19 03:46:00,
2013-06-18 22:51:00,66.3,0.0,29.99,NNW,344,9.2,9.2,0,0.00,CLR,,0.00,WeatherDisplay:10.37,2013-06-19 03:51:00,
2013-06-18 22:56:00,66.0,0.0,29.99,NNW,335,3.1,0.0,0,0.00,CLR,,0.00,WeatherDisplay:10.37,2013-06-19 03:56:00,
2013-06-18 23:01:00,65.9,0.0,29.99,NNE,25,5.8,5.8,0,0.00,CLR,,0.00,WeatherDisplay:10.37,2013-06-19 04:01:00,
2013-06-18 23:06:00,65.5,0.0,29.99,North,360,4.6,4.6,0,0.00,CLR,,0.00,WeatherDisplay:10.37,2013-06-19 04:06:00,
2013-06-18 23:11:00,65.3,0.0,29.99,North,349,0.0,0.0,0,0.00,CLR,,0.00,WeatherDisplay:10.37,2013-06-19 04:11:00,
2013-06-18 23:16:00,65.0,0.0,29.99,NNW,335,3.5,0.0,0,0.00,CLR,,0.00,WeatherDisplay:10.37,2013-06-19 04:16:00,
2013-06-18 23:21:00,64.8,0.0,29.99,NNW,335,0.0,0.0,0,0.00,CLR,,0.00,WeatherDisplay:10.37,2013-06-19 04:21:00,
2013-06-18 23:26:00,64.6,0.0,29.99,NNW,329,3.5,3.5,0,0.00,CLR,,0.00,WeatherDisplay:10.37,2013-06-19 04:26:00,
2013-06-18 23:31:00,64.3,0.0,29.99,NNW,329,0.0,0.0,0,0.00,CLR,,0.00,WeatherDisplay:10.37,2013-06-19 04:31:00,
2013-06-18 23:36:00,64.2,0.0,29.99,NNW,329,0.0,0.0,0,0.00,CLR,,0.00,WeatherDisplay:10.37,2013-06-19 04:36:00,
2013-06-18 23:41:00,63.8,0.0,29.99,NNW,329,0.0,0.0,0,0.00,CLR,,0.00,WeatherDisplay:10.37,2013-06-19 04:41:00,
2013-06-18 23:46:00,63.7,0.0,29.99,NNW,329,0.0,0.0,0,0.00,CLR,,0.00,WeatherDisplay:10.37,2013-06-19 04:46:00,
2013-06-18 23:51:00,63.6,0.0,29.99,NNW,329,0.0,0.0,0,0.00,CLR,,0.00,WeatherDisplay:10.37,2013-06-19 04:51:00,
2013-06-18 23:56:00,63.3,0.0,29.99,NNW,329,0.0,0.0,0,0.00,CLR,,0.00,WeatherDisplay:10.37,2013-06-19 04:56:00,